Voltar ao catálogo

BREEZE-M DEB

AtivoHEO
NORAD 38576·DEBRIS·🇷🇺 Russia

Lançado Mar 14, 2008 de Baikonur Cosmodrome

Loading…

Próximas Passagens (próximas 24 horas)

TLE

AtualizadoSource: Space-Track

Época: Sep 13, 2026, 10:43 UTC

1 38576U 08011X   26256.44687441  .00046796  00000-0  19455-1 0  9995
2 38576  49.3177  38.4069 6326758 138.8231 292.2291  3.53073038154385

Acompanhe BREEZE-M DEB em tempo real com AllMySat

Download on the App Store